Regional Weather Roundup
Issued by NWS Upton, NY

Home | Current Version | Previous Version | Text Only | Print | Product List | Glossary On
Versions: 1 2 3 4 5 6 7 8 9 10 11 12 13 14 15 16 17 18 19 20 21 22 23 24 25 26 27 28 29 30 31 32 33 34 35 36 37 38 39 40 41 42 43 44 45 46 47 48 49 50
000
ASUS41 KOKX 231618
RWROKX

REGIONAL WEATHER ROUNDUP
NATIONAL WEATHER SERVICE NEW YORK NY
1200 PM EDT SAT MAY 23 2015

NOTE: "FAIR" INDICATES FEW OR NO CLOUDS BELOW 12,000 FEET WITH NO
SIGNIFICANT WEATHER AND/OR OBSTRUCTIONS TO VISIBILITY.

NYZ071-072-176-178-NJZ106-104-231700-
NEW YORK CITY METRO AREA


CITY           SKY/WX    TMP DP  RH WIND       PRES   REMARKS
CENTRAL PARK   SUNNY     60  22  23 VRB5      30.44F
LAGUARDIA APRT MOSUNNY   58  25  28 NW14G20   30.42S
KENNEDY INTL   MOSUNNY   60  20  21 W14       30.43S
NEWARK/LIBERTY MOSUNNY   61  23  23 NW10G20   30.42F
BRNX BOT. GARD   N/A     57  28  33 NW9       30.44R
TETERBORO      SUNNY     59  26  28 VRB6G16   30.41F
$$

NYZ177-179-078>081-231700-
LONG ISLAND NEW YORK

CITY           SKY/WX    TMP DP  RH WIND       PRES   REMARKS
FARMINGDALE    SUNNY     58  26  29 NW8       30.42S
ISLIP          MOSUNNY   58  28  32 W12       30.40S
SHIRLEY        SUNNY     56  26  31 W10G20    30.42R
WESTHAMPTON    SUNNY     57  25  29 NW9       30.42S
MONTAUK POINT    N/A     55  26  32 W9        30.41R
$$

NYZ052-065-067-231700-
HUDSON VALLEY

CITY           SKY/WX    TMP DP  RH WIND       PRES   REMARKS
WHITE PLAINS   SUNNY     55  26  32 W14G20    30.40F
NEWBURGH       SUNNY     55  28  35 NW12      30.41F
MONTGOMERY     SUNNY     57  25  29 NW8       30.40F
POUGHKEEPSIE   SUNNY     57  25  29 NW7       30.40F
ALBANY         SUNNY     54  23  30 W12       30.40F
$$

NJZ001-105-106-008-010-013-015-019>022-104-231700-
NEW JERSEY

CITY           SKY/WX    TMP DP  RH WIND       PRES   REMARKS
NEWARK/LIBERTY MOSUNNY   61  23  23 NW10G20   30.42F
TETERBORO      SUNNY     59  26  28 VRB6G16   30.41F
CALDWELL       SUNNY     58  23  26 CALM      30.42F
MORRISTOWN     MOSUNNY   59  25  27 W9G17     30.44S
SOMERVILLE     SUNNY     60  24  25 N9        30.41F
SUSSEX         SUNNY     57  25  29 VRB5      30.43F
ANDOVER          N/A     58  27  30 MISG      30.42F
TRENTON        SUNNY     59  26  28 VRB7      30.44S
MILLVILLE      SUNNY     61  29  29 NW9G16    30.45S
ATLANTIC CITY  SUNNY     62  28  27 VRB5G18   30.44S
WRIGHTSTOWN    SUNNY     60  27  28 NW6       30.42S
TOMS RIVER     SUNNY    N/A N/A N/A NW14G24   30.43S
BELMAR         SUNNY     61  28  29 W9G16     30.43S
$$

PAZ047>061-062-071-231700-
EASTERN PENNSYLVANIA

CITY           SKY/WX    TMP DP  RH WIND       PRES   REMARKS
PHILADELPHIA   MOSUNNY   61  25  25 VRB7      30.46S
ALLENTOWN      SUNNY     59  24  26 N5        30.44F
SCRANTON       SUNNY     57  23  26 W9        30.43F
$$

CTZ002-004>006-009-010-012-RIZ004-006-007-MAZ004-011-015-231700-
SOUTHERN NEW ENGLAND
 IN CT

CITY           SKY/WX    TMP DP  RH WIND       PRES   REMARKS
BRADLEY INTL   SUNNY     58  24  27 W9        30.36S
HARTFORD       SUNNY     57  26  30 W13G20    30.38S
DANBURY        SUNNY     54  24  31 VRB7G16   30.42R
WTRBRY/OXFORD  SUNNY     52  27  37 NW12G17   30.41S
BRIDGEPORT     SUNNY     59  24  26 W7G16     30.40S
MERIDEN        SUNNY     57  23  26 NW13G18   30.39S
NEW HAVEN      SUNNY     56  26  31 NW8       30.40S
CHESTER        FAIR      55  23  28 W8        30.38S
GROTON         SUNNY     56  23  27 NW12G20   30.37S
WILLIMANTIC    SUNNY     56  20  24 N16       30.37S

 IN RI

CITY           SKY/WX    TMP DP  RH WIND       PRES   REMARKS
PROVIDENCE     SUNNY     57  25  29 W18G24    30.35S
BLOCK ISLAND   SUNNY     55  28  35 W16       30.38S
WESTERLY       SUNNY     57  21  24 W12G17    30.37S

 IN MA

CITY           SKY/WX    TMP DP  RH WIND       PRES   REMARKS
BOSTON         MOSUNNY   56  19  23 NW15G22   30.32F
WORCESTER      SUNNY     51  19  28 NW17      30.32S
WESTFIELD      SUNNY     57  19  22 W12G24    30.36S
PROVINCETOWN   SUNNY     54  27  35 NW15      30.34S
NANTUCKET      SUNNY     54  25  32 NW14G26   30.35R
$$

ANZ330-335-338-340-345-350-353-355-231700-
COASTAL MARINE OBSERVATIONS


STATION/POSITION TIME  SKY/WX   TEMP    WIND        PRES    VSBY  WAVE
                                AIR SEA DIR/SP/G                  HT/PER
                 (UTC)          (F)     (DEG/KT/KT) (MB)    (MI)  (FT/S)
NY HARB ENTRANCE 1550            52 56  300/ 10/ 12 1030.0          2/ 3
4S FIRE IS       1503               54                N/A           2/ 8
20S FIRE ISLAND  1550            51 55  310/  8/ 10 1030.2          3/ 4
GREAT SOUTH BAY  1500            53 62  350/  4/ 14   N/A
23SW MTP         1550            49 52  300/ 14/ 16 1029.4          3/ 8
HUDSON CANYON    NOT AVBL
KINGS POINT      1500            53 60  360/  5/ 10 1029.6
CENTRAL LI SOUND 1500            49 51  270/ 10/ 14   N/A
EASTERN LI SOUND 1500            51     290/ 12/ 16   N/A
ROBBINS REEF     1500            52     280/  7/ 10 1029.2
$$


>>>>>>>>>>>>>>>>>>>>>>>>>>>> KEY <<<<<<<<<<<<<<<<<<<<<<<<<<<
>                                                          <
>     SKY/WX - SKY CONDITION/PRESENT WEATHER               <
>     TMP    - TEMPERATURE IN FAHRENHEIT                   <
>     DP     - DEWPOINT IN FAHRENHEIT                      <
>     RH     - RELATIVE HUMIDITY IN PERCENT                <
>     WIND   - DIRECTION AND SPEED IN MPH                  <
>     PRES   - MEAN SEA LEVEL PRESSURE IN INCHES OF HG     <
>     WCI    - WIND CHILL INDEX                            <
>     VSB    - VISIBILITY IN MILES                         <
>     HX     - HEAT INDEX                                  <
>     TC     - TEMPERATURE IN CELSIUS                      <
>     VRB    - VARIABLE WIND DIRECTION                     <
>                                                          <
>>>>>>>>>>>>>>>>>>>>>>>>>>>> KEY <<<<<<<<<<<<<<<<<<<<<<<<<<<





USA.gov is the U.S. government's official web portal to all federal, state and local government web resources and services.